Home > Weather > Fort Collins > Past weeks

Flag for USA Weather for the Past 2 Weeks in Fort Collins, Colorado, USA

Now
36 °F

Mostly cloudy.


Feels Like: 30 °F
Forecast: 33 / 42 °F
Wind: 7 mph from North

Location: Fort Collins-Loveland Municipal Airport

Current Time: Apr 30, 2016 at 1:40:12 AM

Latest Report: Apr 30, 2016 at 1:15 AM


Visibility: 10 mi

Pressure: 29.91 "Hg (24.76 "Hg at 1522m altitude)

Humidity: 93%

Dew Point: 34 °F

Location of Fort CollinsLocation

Historic Weather in Fort Collins — Graph

°F

Fort Collins Temperature Yesterday

Maximum temperature yesterday: 37 °F (at 12:15 AM)
Minimum temperature yesterday: 34 °F (at 5:55 AM)
Average temperature yesterday: 36 °F

High & Low Weather Summary for the Past Weeks

 TemperatureHumidityPressure
High79 °F (Apr 22, 4:15 PM)93% (Apr 16, 3:35 AM)30.36 "Hg (Apr 16, 3:35 AM)
Low30 °F (Apr 27, 3:35 AM)23% (Apr 22, 4:35 PM)29.53 "Hg (Apr 25, 5:15 PM)
Average45 °F66%29.97 "Hg
* Reported Apr 14 11:15 PM — Apr 29 11:55 PM, Fort Collins, Weather by CustomWeather, © 2016

Note: Actual official high and low records may vary slightly from our data, if they occured in-between our weather recording intervals... More about our weather records

Advertising

Fort Collins Weather History for the Previous 24 Hours

Scroll right to see more
 ConditionsComfort  
Time TempWeatherWind HumidityBarometerVisibility
11:55 PM
Fri, Apr 29
36 °FMostly cloudy.8 mph93%29.92 "Hg10 mi
11:15 PM36 °FMostly cloudy.7 mph93%29.92 "Hg10 mi
10:55 PM36 °FLow clouds.6 mph93%29.93 "Hg10 mi
10:35 PM36 °FLow clouds.7 mph93%29.93 "Hg10 mi
9:55 PM36 °FMostly cloudy.6 mph93%29.93 "Hg9 mi
9:35 PM36 °FPartly cloudy.7 mph93%29.92 "Hg10 mi
9:15 PM36 °FPartly cloudy.6 mph93%29.92 "Hg10 mi
8:35 PM36 °FBroken clouds.N/A93%29.92 "Hg10 mi
8:15 PM36 °FLow clouds.5 mph93%29.92 "Hg10 mi
7:55 PM36 °FLow clouds.5 mph87%29.92 "Hg8 mi
7:15 PM37 °FPartly sunny.No wind81%29.92 "Hg10 mi
6:55 PM37 °FPassing clouds.5 mph87%29.92 "Hg10 mi
6:35 PM37 °FPartly sunny.3 mph87%29.92 "Hg10 mi
5:55 PM37 °FPartly sunny.3 mph87%29.93 "Hg10 mi
5:35 PM37 °FMostly cloudy.No wind87%29.93 "Hg10 mi
5:15 PM37 °FPartly sunny.No wind87%29.93 "Hg10 mi
4:55 PM37 °FLow clouds.No wind93%29.94 "Hg10 mi
4:35 PM37 °FLow clouds.No wind87%29.94 "Hg10 mi
4:15 PM36 °FPartly sunny.No wind93%29.95 "Hg10 mi
3:55 PM34 °FMostly cloudy.No wind93%29.96 "Hg2 mi
3:35 PM34 °FOvercast.No wind87%29.96 "Hg1 mi
3:15 PM34 °FLow clouds.No wind87%29.96 "Hg1 mi
2:55 PM34 °FLow clouds.No wind87%29.97 "Hg0 mi
2:35 PM34 °FMostly cloudy.3 mph93%29.98 "Hg1 mi
2:15 PM34 °FPartly sunny.5 mph93%29.98 "Hg2 mi
1:55 PM34 °FOvercast.6 mph87%29.97 "Hg1 mi
1:35 PM34 °FLow clouds.7 mph87%29.97 "Hg1 mi
1:15 PM34 °FMostly cloudy.8 mph93%29.96 "Hg1 mi
12:55 PM36 °FMostly cloudy.9 mph93%29.96 "Hg3 mi
12:35 PM36 °FLow clouds.9 mph93%29.96 "Hg8 mi
12:15 PM36 °FMostly cloudy.9 mph93%29.96 "Hg6 mi
11:55 AM37 °FMostly cloudy.10 mph87%29.96 "Hg10 mi
11:35 AM37 °FMostly cloudy.10 mph87%29.96 "Hg7 mi
11:15 AM37 °FMostly cloudy.6 mph93%29.96 "Hg10 mi
10:55 AM37 °FMore clouds than sun.7 mph87%29.97 "Hg10 mi
10:35 AM37 °FLow clouds.9 mph87%29.98 "Hg10 mi
10:15 AM36 °FLow clouds.8 mph93%29.98 "Hg10 mi
9:55 AM36 °FMostly cloudy.7 mph93%29.98 "Hg10 mi
9:35 AM36 °FMostly cloudy.6 mph93%29.98 "Hg9 mi
9:15 AM36 °FLow clouds.5 mph93%29.99 "Hg10 mi
8:55 AM36 °FLow clouds.5 mph93%29.99 "Hg10 mi
8:35 AM36 °FLow clouds.3 mph93%29.99 "Hg10 mi
8:15 AM34 °FLow clouds.No wind93%29.99 "Hg6 mi
7:55 AM34 °FLow clouds.No wind93%30.00 "Hg5 mi
7:35 AM34 °FLow clouds.No wind93%30.00 "Hg5 mi
7:15 AM34 °FLow clouds.3 mph87%30.01 "Hg4 mi
6:55 AM34 °FMostly cloudy.5 mph87%30.01 "Hg6 mi
6:35 AM34 °FMostly cloudy.5 mph87%30.02 "Hg3 mi
6:15 AM34 °FLow clouds.5 mph87%30.02 "Hg6 mi
5:55 AM34 °FLow clouds.7 mph93%30.03 "Hg7 mi
5:35 AM36 °FLow clouds.7 mph87%30.02 "Hg10 mi
5:15 AM36 °FLow clouds.13 mph93%30.02 "Hg10 mi
4:55 AM36 °FLow clouds.10 mph87%30.00 "Hg10 mi
4:35 AM36 °FMostly cloudy.10 mph87%30.02 "Hg9 mi
4:15 AM36 °FMostly cloudy.13 mph93%30.03 "Hg8 mi
3:55 AM36 °FOvercast.15 mph93%30.05 "Hg7 mi
3:35 AM36 °FMostly cloudy.13 mph93%30.04 "Hg7 mi
3:15 AM37 °FLow clouds.9 mph87%30.04 "Hg10 mi
2:55 AM37 °FLow clouds.10 mph87%30.03 "Hg10 mi
2:35 AM36 °FPassing clouds.10 mph93%30.03 "Hg10 mi
2:15 AM36 °FMostly cloudy.12 mph93%30.04 "Hg10 mi
1:55 AM36 °FMostly cloudy.10 mph93%30.04 "Hg10 mi
1:35 AM37 °FPartly cloudy.13 mph87%30.04 "Hg7 mi
1:15 AM37 °FMostly cloudy.13 mph87%30.05 "Hg5 mi
Weather by CustomWeather, © 2016

See weather overviewHow to use our weather pages